Torna al catalogo

THOR ABLESTAR DEB

AttivoLEO
NORAD 336·DEBRIS·🇺🇸 United States

Lanciato Jun 29, 1961 da Cape Canaveral Space Force Station

Loading…

Prossimi Passaggi (prossime 24 ore)

TLE

AggiornatoSource: Space-Track

Epoca: Sep 7, 2026, 07:40 UTC

1 00336U 61015DN  26250.31950334 -.00000004  00000-0  75543-4 0  9991
2 00336  67.0328   2.5535 0071872  76.6306 315.3673 13.69235714250447

Traccia THOR ABLESTAR DEB in tempo reale con AllMySat

Download on the App Store